Location: Davayat
(45.9471°N, 3.1105°E)
Time: 18:28:25
(UTC+00:00)

ERS-2 - Pass Details

Date: 01 December 2020
Orbit: 492 x 498 km, 98.6° (Epoch: 23 January)

Event Time Altitude Azimuth Distance (km) Brightness Sun altitude
Exits shadow 16:36:35 - 50° (NE) 1,984 4.5 -5.8°
Reaches altitude 10° 16:37:46 10° 64° (ENE) 1,708 4.1 -6.0°
Maximum altitude 16:39:27 13° 92° (E) 1,540 4.1 -6.2°
Drops below altitude 10° 16:41:07 10° 119° (ESE) 1,701 4.5 -6.5°
Sets 16:44:14 0° 149° (SSE) 2,576 5.7 -7.0°
